Time,TemperatureF,DewpointF,PressureIn,WindDirection,WindDirectionDegrees,WindSpeedMPH,WindSpeedGustMPH,Humidity,HourlyPrecipIn,Conditions,Clouds,dailyrainin,SoftwareType,DateUTC
2013-02-21 00:01:00,41.0,37.0,29.48,ESE,113,1.0,2.0,85,0.00,,,0.08,,2013-02-21 08:01:00,
2013-02-21 00:11:00,40.0,36.0,29.48,ESE,113,0.0,1.0,85,0.00,,,0.08,,2013-02-21 08:11:00,
2013-02-21 00:21:00,40.0,36.0,29.48,ESE,113,0.0,1.0,85,0.00,,,0.08,,2013-02-21 08:21:00,
2013-02-21 00:31:00,40.0,36.0,29.47,ESE,113,1.0,2.0,86,0.00,,,0.08,,2013-02-21 08:31:00,
2013-02-21 00:41:00,40.0,36.0,29.47,ESE,113,1.0,2.0,86,0.00,,,0.08,,2013-02-21 08:41:00,
2013-02-21 00:52:00,39.0,35.0,29.47,SSW,203,1.0,2.0,86,0.00,,,0.08,,2013-02-21 08:52:00,
2013-02-21 01:01:00,40.0,36.0,29.47,West,270,0.0,0.0,86,0.00,,,0.08,,2013-02-21 09:01:00,
2013-02-21 01:11:00,40.0,36.0,29.47,West,270,0.0,0.0,86,0.00,,,0.08,,2013-02-21 09:11:00,
2013-02-21 01:22:00,40.0,36.0,29.47,East,90,1.0,2.0,86,0.00,,,0.08,,2013-02-21 09:22:00,
2013-02-21 01:31:00,40.0,36.0,29.47,East,90,1.0,3.0,86,0.00,,,0.08,,2013-02-21 09:31:00,
2013-02-21 01:41:00,40.0,36.0,29.47,East,90,1.0,3.0,86,0.00,,,0.08,,2013-02-21 09:41:00,
2013-02-21 01:52:00,41.0,37.0,29.48,SE,135,2.0,2.0,85,0.00,,,0.08,,2013-02-21 09:52:00,
2013-02-21 02:01:00,40.0,36.0,29.49,East,90,1.0,2.0,85,0.00,,,0.08,,2013-02-21 10:01:00,
2013-02-21 02:11:00,40.0,36.0,29.49,East,90,1.0,2.0,85,0.00,,,0.08,,2013-02-21 10:11:00,
2013-02-21 02:21:00,40.0,36.0,29.51,East,90,1.0,2.0,84,0.00,,,0.08,,2013-02-21 10:21:00,
2013-02-21 02:31:00,40.0,36.0,29.51,ESE,113,2.0,5.0,84,0.00,,,0.08,,2013-02-21 10:31:00,
2013-02-21 02:41:00,40.0,36.0,29.51,ESE,113,2.0,5.0,84,0.00,,,0.08,,2013-02-21 10:41:00,
2013-02-21 02:51:00,40.0,36.0,29.48,East,90,1.0,2.0,84,0.00,,,0.08,,2013-02-21 10:51:00,
2013-02-21 03:00:00,40.0,36.0,29.49,SSW,203,2.0,2.0,84,0.00,,,0.08,,2013-02-21 11:00:00,
2013-02-21 03:10:00,40.0,36.0,29.49,SSW,203,2.0,2.0,84,0.00,,,0.08,,2013-02-21 11:10:00,
2013-02-21 03:21:00,40.0,36.0,29.49,ESE,113,2.0,3.0,84,0.00,,,0.08,,2013-02-21 11:21:00,
2013-02-21 03:31:00,40.0,36.0,29.50,East,90,1.0,2.0,84,0.00,,,0.08,,2013-02-21 11:31:00,
2013-02-21 03:41:00,40.0,36.0,29.50,East,90,1.0,2.0,84,0.00,,,0.08,,2013-02-21 11:41:00,
2013-02-21 03:51:00,40.0,36.0,29.50,SE,135,2.0,3.0,84,0.00,,,0.08,,2013-02-21 11:51:00,
2013-02-21 04:01:00,40.0,36.0,29.50,East,90,3.0,4.0,85,0.00,,,0.08,,2013-02-21 12:01:00,
2013-02-21 04:11:00,40.0,36.0,29.50,East,90,3.0,4.0,85,0.00,,,0.08,,2013-02-21 12:11:00,
2013-02-21 04:21:00,40.0,36.0,29.47,South,180,3.0,4.0,85,0.00,,,0.08,,2013-02-21 12:21:00,
2013-02-21 04:32:00,40.0,36.0,29.47,East,90,2.0,3.0,86,0.00,,,0.08,,2013-02-21 12:32:00,
2013-02-21 04:42:00,40.0,36.0,29.49,East,90,2.0,4.0,87,0.00,,,0.08,,2013-02-21 12:42:00,
2013-02-21 04:52:00,40.0,36.0,29.49,East,90,2.0,4.0,87,0.00,,,0.08,,2013-02-21 12:52:00,
2013-02-21 05:01:00,40.0,36.0,29.48,East,90,2.0,6.0,87,0.00,,,0.08,,2013-02-21 13:01:00,
2013-02-21 05:12:00,40.0,36.0,29.48,East,90,2.0,6.0,87,0.00,,,0.08,,2013-02-21 13:12:00,
2013-02-21 05:22:00,40.0,37.0,29.48,East,90,3.0,3.0,88,0.00,,,0.08,,2013-02-21 13:22:00,
2013-02-21 05:31:00,41.0,38.0,29.48,SE,135,1.0,4.0,88,0.00,,,0.08,,2013-02-21 13:31:00,
2013-02-21 05:41:00,41.0,38.0,29.48,SE,135,1.0,4.0,88,0.00,,,0.08,,2013-02-21 13:41:00,
2013-02-21 05:52:00,41.0,38.0,29.49,East,90,2.0,2.0,89,0.00,,,0.08,,2013-02-21 13:52:00,
2013-02-21 06:01:00,41.0,38.0,29.49,SSE,158,2.0,5.0,88,0.00,,,0.08,,2013-02-21 14:01:00,
2013-02-21 06:11:00,41.0,38.0,29.49,SSE,158,2.0,5.0,88,0.00,,,0.08,,2013-02-21 14:11:00,
2013-02-21 06:21:00,41.0,38.0,29.49,ESE,113,2.0,5.0,88,0.00,,,0.08,,2013-02-21 14:21:00,
2013-02-21 06:31:00,41.0,37.0,29.49,ESE,113,3.0,5.0,87,0.00,,,0.08,,2013-02-21 14:31:00,
2013-02-21 06:41:00,41.0,37.0,29.49,ESE,113,3.0,5.0,87,0.00,,,0.08,,2013-02-21 14:41:00,
2013-02-21 06:52:00,41.0,37.0,29.49,SE,135,3.0,5.0,87,0.00,,,0.08,,2013-02-21 14:52:00,
2013-02-21 07:01:00,41.0,37.0,29.50,SSW,203,2.0,3.0,86,0.00,,,0.08,,2013-02-21 15:01:00,
2013-02-21 07:12:00,41.0,37.0,29.50,SSW,203,2.0,3.0,86,0.00,,,0.08,,2013-02-21 15:12:00,
2013-02-21 07:21:00,41.0,37.0,29.50,East,90,3.0,4.0,85,0.00,,,0.08,,2013-02-21 15:21:00,
2013-02-21 07:31:00,41.0,37.0,29.50,ESE,113,2.0,5.0,84,0.00,,,0.08,,2013-02-21 15:31:00,
2013-02-21 07:41:00,41.0,37.0,29.50,ESE,113,2.0,5.0,84,0.00,,,0.08,,2013-02-21 15:41:00,
2013-02-21 07:52:00,41.0,36.0,29.51,East,90,3.0,6.0,83,0.00,,,0.08,,2013-02-21 15:52:00,
2013-02-21 08:01:00,41.0,36.0,29.51,SE,135,3.0,3.0,82,0.00,,,0.08,,2013-02-21 16:01:00,
2013-02-21 08:12:00,41.0,36.0,29.52,East,90,2.0,5.0,82,0.00,,,0.08,,2013-02-21 16:12:00,
2013-02-21 08:21:00,41.0,36.0,29.52,East,90,2.0,5.0,82,0.00,,,0.08,,2013-02-21 16:21:00,
2013-02-21 08:31:00,42.0,36.0,29.51,East,90,2.0,3.0,79,0.00,,,0.08,,2013-02-21 16:31:00,
2013-02-21 08:41:00,42.0,36.0,29.51,NNE,23,3.0,3.0,79,0.00,,,0.08,,2013-02-21 16:41:00,
2013-02-21 08:52:00,42.0,36.0,29.51,NNE,23,3.0,3.0,79,0.00,,,0.08,,2013-02-21 16:52:00,
2013-02-21 09:01:00,42.0,35.0,29.52,NW,315,2.0,4.0,77,0.00,,,0.08,,2013-02-21 17:01:00,
2013-02-21 09:11:00,42.0,35.0,29.52,WNW,293,2.0,3.0,76,0.00,,,0.08,,2013-02-21 17:11:00,
2013-02-21 09:21:00,42.0,35.0,29.52,WNW,293,2.0,3.0,76,0.00,,,0.08,,2013-02-21 17:21:00,
2013-02-21 09:32:00,42.0,35.0,29.52,ESE,113,2.0,4.0,76,0.00,,,0.08,,2013-02-21 17:32:00,
2013-02-21 09:41:00,42.0,35.0,29.52,ESE,113,2.0,4.0,76,0.00,,,0.08,,2013-02-21 17:41:00,
2013-02-21 09:52:00,42.0,35.0,29.52,SSW,203,3.0,6.0,77,0.00,,,0.08,,2013-02-21 17:52:00,
2013-02-21 10:01:00,42.0,35.0,29.51,SE,135,2.0,5.0,77,0.00,,,0.08,,2013-02-21 18:01:00,
2013-02-21 10:11:00,42.0,35.0,29.51,SE,135,2.0,5.0,77,0.00,,,0.08,,2013-02-21 18:11:00,
2013-02-21 10:21:00,43.0,36.0,29.52,ESE,113,3.0,6.0,76,0.00,,,0.08,,2013-02-21 18:21:00,
2013-02-21 10:31:00,43.0,35.0,29.52,SE,135,3.0,5.0,73,0.00,,,0.08,,2013-02-21 18:31:00,
2013-02-21 10:42:00,43.0,35.0,29.52,SE,135,3.0,5.0,73,0.00,,,0.08,,2013-02-21 18:42:00,
2013-02-21 10:52:00,44.0,36.0,29.52,West,270,3.0,10.0,72,0.00,,,0.08,,2013-02-21 18:52:00,
2013-02-21 11:01:00,44.0,35.0,29.52,North,0,3.0,3.0,71,0.00,,,0.08,,2013-02-21 19:01:00,
2013-02-21 11:11:00,44.0,35.0,29.52,North,0,3.0,3.0,71,0.00,,,0.08,,2013-02-21 19:11:00,
2013-02-21 11:21:00,43.0,34.0,29.51,ENE,68,3.0,4.0,70,0.00,,,0.08,,2013-02-21 19:21:00,
2013-02-21 11:31:00,43.0,35.0,29.53,NNW,338,4.0,8.0,72,0.00,,,0.08,,2013-02-21 19:31:00,
2013-02-21 11:41:00,43.0,35.0,29.53,NNW,338,4.0,8.0,72,0.00,,,0.08,,2013-02-21 19:41:00,
2013-02-21 11:52:00,42.0,35.0,29.53,ESE,113,3.0,6.0,75,0.00,,,0.08,,2013-02-21 19:52:00,
2013-02-21 12:01:00,43.0,36.0,29.52,South,180,2.0,3.0,75,0.00,,,0.08,,2013-02-21 20:01:00,
2013-02-21 12:11:00,43.0,35.0,29.52,WNW,293,2.0,3.0,72,0.00,,,0.08,,2013-02-21 20:11:00,
2013-02-21 12:21:00,43.0,35.0,29.52,WNW,293,2.0,3.0,72,0.00,,,0.08,,2013-02-21 20:21:00,
2013-02-21 12:31:00,44.0,36.0,29.52,ESE,113,2.0,5.0,72,0.00,,,0.08,,2013-02-21 20:31:00,
2013-02-21 12:41:00,44.0,36.0,29.52,ESE,113,2.0,5.0,72,0.00,,,0.08,,2013-02-21 20:41:00,
2013-02-21 12:52:00,45.0,36.0,29.52,ESE,113,2.0,5.0,70,0.00,,,0.08,,2013-02-21 20:52:00,
2013-02-21 13:02:00,45.0,35.0,29.50,SSW,203,2.0,7.0,68,0.00,,,0.08,,2013-02-21 21:02:00,
2013-02-21 13:11:00,44.0,34.0,29.50,SSE,158,2.0,3.0,69,0.00,,,0.08,,2013-02-21 21:11:00,
2013-02-21 13:21:00,44.0,34.0,29.50,SSE,158,2.0,3.0,69,0.00,,,0.08,,2013-02-21 21:21:00,
2013-02-21 13:31:00,44.0,35.0,29.50,East,90,2.0,5.0,70,0.00,,,0.08,,2013-02-21 21:31:00,
2013-02-21 13:41:00,44.0,35.0,29.50,ESE,113,2.0,3.0,70,0.00,,,0.08,,2013-02-21 21:41:00,
2013-02-21 13:52:00,44.0,35.0,29.50,ESE,113,2.0,3.0,70,0.00,,,0.08,,2013-02-21 21:52:00,
2013-02-21 14:01:00,43.0,34.0,29.51,ESE,113,3.0,4.0,71,0.00,,,0.08,,2013-02-21 22:01:00,
2013-02-21 14:11:00,43.0,34.0,29.51,ESE,113,3.0,4.0,71,0.00,,,0.08,,2013-02-21 22:11:00,
2013-02-21 14:21:00,43.0,35.0,29.49,SE,135,3.0,4.0,74,0.00,,,0.08,,2013-02-21 22:21:00,
2013-02-21 14:31:00,43.0,36.0,29.49,WNW,293,3.0,4.0,75,0.00,,,0.08,,2013-02-21 22:31:00,
2013-02-21 14:41:00,43.0,36.0,29.50,SSE,158,1.0,2.0,77,0.00,,,0.08,,2013-02-21 22:41:00,
2013-02-21 14:52:00,43.0,36.0,29.50,SSE,158,1.0,2.0,77,0.00,,,0.08,,2013-02-21 22:52:00,
2013-02-21 15:01:00,43.0,37.0,29.50,ENE,68,2.0,3.0,79,0.00,,,0.08,,2013-02-21 23:01:00,
2013-02-21 15:11:00,43.0,37.0,29.50,ENE,68,2.0,3.0,79,0.00,,,0.08,,2013-02-21 23:11:00,
2013-02-21 15:21:00,43.0,37.0,29.48,SE,135,2.0,3.0,79,0.00,,,0.08,,2013-02-21 23:21:00,
2013-02-21 15:31:00,43.0,37.0,29.48,ESE,113,2.0,3.0,79,0.00,,,0.08,,2013-02-21 23:31:00,
2013-02-21 15:41:00,43.0,37.0,29.48,ESE,113,2.0,3.0,79,0.00,,,0.08,,2013-02-21 23:41:00,
2013-02-21 15:52:00,43.0,37.0,29.48,ESE,113,2.0,3.0,79,0.00,,,0.08,,2013-02-21 23:52:00,
2013-02-21 16:01:00,43.0,37.0,29.48,ESE,113,2.0,3.0,79,0.00,,,0.08,,2013-02-22 00:01:00,
2013-02-21 16:22:00,44.0,37.0,29.50,ESE,113,2.0,7.0,75,0.00,,,0.05,,2013-02-22 00:22:00,
2013-02-21 16:32:00,44.0,36.0,29.49,SE,135,2.0,3.0,73,0.00,,,0.05,,2013-02-22 00:32:00,
2013-02-21 16:42:00,44.0,36.0,29.49,SE,135,2.0,3.0,73,0.00,,,0.05,,2013-02-22 00:42:00,
2013-02-21 16:52:00,44.0,36.0,29.49,East,90,2.0,6.0,73,0.00,,,0.05,,2013-02-22 00:52:00,
2013-02-21 17:01:00,44.0,36.0,29.49,SE,135,2.0,6.0,73,0.00,,,0.05,,2013-02-22 01:01:00,
2013-02-21 17:11:00,44.0,36.0,29.49,SE,135,2.0,6.0,73,0.00,,,0.05,,2013-02-22 01:11:00,
2013-02-21 17:21:00,44.0,36.0,29.49,East,90,2.0,2.0,73,0.00,,,0.05,,2013-02-22 01:21:00,
2013-02-21 17:32:00,44.0,36.0,29.49,SE,135,1.0,2.0,73,0.00,,,0.05,,2013-02-22 01:32:00,
2013-02-21 17:42:00,44.0,36.0,29.49,SE,135,1.0,2.0,73,0.00,,,0.05,,2013-02-22 01:42:00,
2013-02-21 17:52:00,44.0,36.0,29.49,SE,135,1.0,2.0,73,0.00,,,0.05,,2013-02-22 01:52:00,
2013-02-21 18:01:00,44.0,36.0,29.49,SE,135,1.0,2.0,73,0.00,,,0.05,,2013-02-22 02:01:00,